TimeCDT,TemperatureF,Dew PointF,Humidity,Sea Level PressureIn,VisibilityMPH,Wind Direction,Wind SpeedMPH,Gust SpeedMPH,PrecipitationIn,Events,Conditions,WindDirDegrees,DateUTC
12:15 AM,52.7,37.2,56,30.14,10.0,SSE,4.6,-,N/A,,Clear,160,2013-09-14 05:15:00
12:35 AM,52.5,37.2,56,30.14,10.0,South,3.5,-,N/A,,Clear,170,2013-09-14 05:35:00
12:55 AM,46.8,38.1,72,30.14,10.0,SE,6.9,-,N/A,,Clear,130,2013-09-14 05:55:00
1:15 AM,47.1,39.9,76,30.13,10.0,SE,8.1,-,N/A,,Clear,140,2013-09-14 06:15:00
1:35 AM,48.4,39.7,72,30.14,10.0,SSE,5.8,-,N/A,,Clear,150,2013-09-14 06:35:00
1:55 AM,47.7,39.6,73,30.15,10.0,SSE,4.6,-,N/A,,Clear,160,2013-09-14 06:55:00
2:15 AM,47.7,39.4,73,30.14,10.0,SSE,5.8,-,N/A,,Clear,160,2013-09-14 07:15:00
2:35 AM,47.3,39.2,73,30.14,10.0,South,5.8,-,N/A,,Clear,170,2013-09-14 07:35:00
2:55 AM,46.8,39.2,75,30.14,10.0,South,5.8,-,N/A,,Clear,170,2013-09-14 07:55:00
3:15 AM,46.4,39.2,76,30.14,10.0,South,5.8,-,N/A,,Clear,170,2013-09-14 08:15:00
3:35 AM,47.3,39.0,73,30.15,10.0,South,4.6,-,N/A,,Clear,190,2013-09-14 08:35:00
3:55 AM,45.7,39.2,78,30.14,10.0,South,4.6,-,N/A,,Clear,170,2013-09-14 08:55:00
4:15 AM,45.5,39.2,79,30.13,10.0,SSE,6.9,-,N/A,,Clear,160,2013-09-14 09:15:00
4:35 AM,45.5,39.2,79,30.13,10.0,South,6.9,-,N/A,,Clear,170,2013-09-14 09:35:00
4:55 AM,45.9,39.2,78,30.13,10.0,South,8.1,-,N/A,,Clear,170,2013-09-14 09:55:00
5:15 AM,45.7,38.7,76,30.14,10.0,SSE,4.6,-,N/A,,Clear,160,2013-09-14 10:15:00
5:35 AM,44.6,38.7,80,30.14,10.0,SSE,4.6,-,N/A,,Clear,160,2013-09-14 10:35:00
5:55 AM,44.1,38.7,81,30.14,10.0,SSE,4.6,-,N/A,,Clear,160,2013-09-14 10:55:00
6:15 AM,44.1,39.0,82,30.14,10.0,South,5.8,-,N/A,,Clear,170,2013-09-14 11:15:00
6:35 AM,45.0,39.2,80,30.15,10.0,South,4.6,-,N/A,,Clear,170,2013-09-14 11:35:00
6:55 AM,44.2,39.4,83,30.15,10.0,South,4.6,-,N/A,,Clear,180,2013-09-14 11:55:00
7:15 AM,45.1,40.1,82,30.16,10.0,SSE,5.8,-,N/A,,Clear,160,2013-09-14 12:15:00
7:35 AM,47.5,41.0,78,30.15,10.0,South,5.8,-,N/A,,Clear,180,2013-09-14 12:35:00
7:55 AM,49.1,41.4,75,30.15,10.0,South,8.1,-,N/A,,Clear,180,2013-09-14 12:55:00
8:15 AM,50.2,41.9,73,30.15,10.0,South,9.2,-,N/A,,Clear,190,2013-09-14 13:15:00
8:35 AM,51.4,42.8,72,30.16,10.0,SSW,8.1,-,N/A,,Clear,200,2013-09-14 13:35:00
8:55 AM,53.6,43.9,70,30.15,10.0,SSW,9.2,-,N/A,,Clear,200,2013-09-14 13:55:00
9:15 AM,55.6,43.9,65,30.16,10.0,SSW,9.2,-,N/A,,Clear,200,2013-09-14 14:15:00
9:35 AM,57.2,43.7,61,30.16,10.0,SSW,9.2,-,N/A,,Clear,210,2013-09-14 14:35:00
9:55 AM,58.6,43.2,56,30.15,10.0,SSW,10.4,-,N/A,,Clear,210,2013-09-14 14:55:00
10:15 AM,60.8,44.1,54,30.14,10.0,SSW,10.4,-,N/A,,Clear,200,2013-09-14 15:15:00
10:35 AM,61.0,43.7,53,30.14,10.0,SSW,13.8,-,N/A,,Clear,210,2013-09-14 15:35:00
10:55 AM,62.6,43.3,49,30.14,10.0,SSW,10.4,-,N/A,,Clear,210,2013-09-14 15:55:00
11:15 AM,64.4,43.5,47,30.13,10.0,SW,12.7,-,N/A,,Clear,220,2013-09-14 16:15:00
11:35 AM,65.3,41.7,42,30.12,10.0,SSW,9.2,18.4,N/A,,Clear,210,2013-09-14 16:35:00
11:55 AM,65.8,42.8,43,30.11,10.0,SW,10.4,-,N/A,,Clear,220,2013-09-14 16:55:00
12:15 PM,66.4,43.0,43,30.10,10.0,SW,9.2,-,N/A,,Clear,220,2013-09-14 17:15:00
12:35 PM,67.5,45.7,46,30.10,10.0,SW,12.7,-,N/A,,Clear,230,2013-09-14 17:35:00
12:55 PM,67.5,44.6,44,30.09,10.0,SW,9.2,16.1,N/A,,Clear,230,2013-09-14 17:55:00
1:15 PM,66.6,45.5,47,30.09,10.0,SW,10.4,16.1,N/A,,Clear,220,2013-09-14 18:15:00
1:35 PM,67.1,45.5,46,30.08,10.0,SW,9.2,-,N/A,,Clear,220,2013-09-14 18:35:00
1:55 PM,67.6,45.0,44,30.07,10.0,SSW,9.2,-,N/A,,Clear,210,2013-09-14 18:55:00
2:15 PM,65.8,46.6,50,30.07,10.0,SW,8.1,-,N/A,,Clear,220,2013-09-14 19:15:00
2:35 PM,69.3,46.2,44,30.06,10.0,SW,10.4,-,N/A,,Clear,220,2013-09-14 19:35:00
2:55 PM,67.5,45.1,45,30.05,10.0,SSW,8.1,-,N/A,,Clear,210,2013-09-14 19:55:00
3:15 PM,69.3,45.9,43,30.04,10.0,SSW,10.4,-,N/A,,Clear,210,2013-09-14 20:15:00
3:35 PM,70.2,45.7,41,30.03,10.0,SW,12.7,-,N/A,,Clear,220,2013-09-14 20:35:00
3:55 PM,70.2,45.7,41,30.03,10.0,SSW,12.7,18.4,N/A,,Clear,200,2013-09-14 20:55:00
4:15 PM,70.2,44.2,39,30.02,10.0,South,12.7,-,N/A,,Clear,190,2013-09-14 21:15:00
4:35 PM,69.3,44.4,41,30.02,10.0,SSW,9.2,-,N/A,,Clear,210,2013-09-14 21:35:00
4:55 PM,67.6,44.2,43,30.01,10.0,SSW,11.5,-,N/A,,Clear,210,2013-09-14 21:55:00
5:15 PM,67.5,45.5,45,30.02,10.0,SSW,9.2,-,N/A,,Clear,200,2013-09-14 22:15:00
5:55 PM,66.2,45.5,47,30.01,10.0,South,5.8,-,N/A,,Clear,170,2013-09-14 22:55:00
6:15 PM,65.3,45.5,49,30.01,10.0,South,5.8,-,N/A,,Clear,170,2013-09-14 23:15:00
6:55 PM,63.5,46.2,53,30.01,10.0,SSE,4.6,-,N/A,,Clear,150,2013-09-14 23:55:00
7:35 PM,61.7,46.9,58,30.00,10.0,SE,4.6,-,N/A,,Clear,130,2013-09-15 00:35:00
7:55 PM,61.5,47.3,60,29.98,10.0,SE,5.8,-,N/A,,Clear,140,2013-09-15 00:55:00
8:35 PM,61.7,47.3,59,29.98,10.0,SE,6.9,-,N/A,,Mostly Cloudy,140,2013-09-15 01:35:00
8:55 PM,61.7,47.3,59,29.97,10.0,SE,8.1,-,N/A,,Mostly Cloudy,140,2013-09-15 01:55:00
9:15 PM,61.2,47.3,60,29.96,10.0,SE,6.9,-,N/A,,Overcast,140,2013-09-15 02:15:00
9:55 PM,61.7,46.6,58,29.97,10.0,SE,6.9,-,N/A,,Overcast,140,2013-09-15 02:55:00
10:15 PM,60.3,48.2,64,29.96,10.0,SE,6.9,-,N/A,,Overcast,130,2013-09-15 03:15:00
10:35 PM,58.3,50.4,75,29.96,10.0,ESE,6.9,-,N/A,,Overcast,120,2013-09-15 03:35:00
10:55 PM,57.0,51.6,82,29.99,10.0,NE,5.8,-,0.01,,Overcast,50,2013-09-15 03:55:00
11:15 PM,56.8,51.6,83,30.01,10.0,East,3.5,-,0.01,,Overcast,80,2013-09-15 04:15:00
11:35 PM,56.7,51.8,84,30.00,10.0,East,4.6,-,0.03,,Overcast,100,2013-09-15 04:35:00
11:55 PM,55.8,54.5,96,30.01,5.0,Calm,Calm,-,0.06,,Overcast,0,2013-09-15 04:55:00